This is the latest recevied weather packets stored in our database for station/object KC1IUC-15. If no packets are shown the sender has not sent any weather packets the latest 10 day(s).
| Time | Temp. | Humidity | Pressure | Rain* | Wind** | Luminosity | Snow |
|---|---|---|---|---|---|---|---|
| 1787772004 | 25.56° C | 52% | 1016.4 hPa | 0 mm | - | 615 W/m² | - |
| 1787771704 | 26.11° C | 54% | 1016.1 hPa | 0 mm | - | 131 W/m² | - |
| 1787771404 | 26.11° C | 56% | 1016.1 hPa | 0 mm | - | 165 W/m² | - |
| 1787771104 | 26.11° C | 54% | 1016.1 hPa | 0 mm | - | 230 W/m² | - |
| 1787770804 | 25.56° C | 53% | 1016.1 hPa | 0 mm | - | 723 W/m² | - |
| 1787770504 | 26.11° C | 51% | 1016.4 hPa | 0 mm | - | 751 W/m² | - |
| 1787770204 | 26.11° C | 57% | 1016.4 hPa | 0 mm | - | 768 W/m² | - |
| 1787769904 | 25.56° C | 54% | 1016.4 hPa | 0 mm | - | 606 W/m² | - |
| 1787769604 | 25.56° C | 53% | 1016.4 hPa | 0 mm | - | 291 W/m² | - |
| 1787769304 | 26.11° C | 53% | 1016.4 hPa | 0 mm | - | 248 W/m² | - |
| 1787769004 | 26.67° C | 48% | 1016.7 hPa | 0 mm | - | 354 W/m² | - |
| 1787768704 | 27.78° C | 49% | 1017.1 hPa | 0 mm | - | 279 W/m² | - |
| 1787768404 | 26.67° C | 48% | 1016.7 hPa | 0 mm | - | 723 W/m² | - |
| 1787768104 | 26.11° C | 57% | 1016.7 hPa | 0 mm | - | 706 W/m² | - |
| 1787767807 | 26.11° C | 55% | 1016.7 hPa | 0 mm | - | 211 W/m² | - |
| 1787767504 | 25.56° C | 56% | 1016.7 hPa | 0 mm | - | 180 W/m² | - |
| 1787767204 | 25° C | 57% | 1016.7 hPa | 0 mm | - | 191 W/m² | - |
| 1787766904 | 26.11° C | 53% | 1016.7 hPa | 0 mm | - | 176 W/m² | - |
| 1787766604 | 26.11° C | 53% | 1016.7 hPa | 0 mm | - | 767 W/m² | - |
| 1787766304 | 25.56° C | 55% | 1016.7 hPa | 0 mm | - | 804 W/m² | - |
| 1787766004 | 26.11° C | 52% | 1016.7 hPa | 0 mm | - | 546 W/m² | - |
| 1787765704 | 26.67° C | 55% | 1016.7 hPa | 0 mm | - | 141 W/m² | - |
| 1787765404 | 25.56° C | 54% | 1016.7 hPa | 0 mm | - | 698 W/m² | - |
| 1787765104 | 24.44° C | 57% | 1016.7 hPa | 0 mm | - | 731 W/m² | - |
| 1787764804 | 24.44° C | 57% | 1016.7 hPa | 0 mm | - | 676 W/m² | - |
* Rain latest hour (hover to see other rain measurements)
** Current wind speed in m/s (hover to see current wind gust speed)